| time (UTC) | temp C | wind direction | speed KPH | gust KPH | rain 1hr cm | rain 24hr cm | rain mn cm | humidity % | barometer mb |
| 20260506103929 | 6 | 121 | 0.0 | 0.0 | 0.00 | 0.00 | 0.00 | 95 | 1018.3 |
| 20260506103426 | 6 | 123 | 0.0 | 0.0 | 0.00 | 0.00 | 0.00 | 95 | 1018.4 |
| 20260506102923 | 6 | 121 | 0.0 | 0.0 | 0.00 | 0.00 | 0.00 | 95 | 1018.2 |
| 20260506102421 | 5 | 121 | 0.0 | 0.0 | 0.00 | 0.00 | 0.00 | 95 | 1017.8 |
| 20260506101918 | 5 | 121 | 0.0 | 0.0 | 0.00 | 0.00 | 0.00 | 95 | 1017.9 |
| 20260506101414 | 6 | 121 | 0.0 | 0.0 | 0.00 | 0.00 | 0.00 | 95 | 1017.7 |
| 20260506100912 | 6 | 121 | 0.0 | 0.0 | 0.00 | 0.00 | 0.00 | 95 | 1018.0 |
| 20260506100410 | 6 | 120 | 0.0 | 0.0 | 0.00 | 0.00 | 0.00 | 95 | 1018.1 |
| 20260506095908 | 6 | 120 | 0.0 | 0.0 | 0.00 | 0.00 | 0.00 | 94 | 1018.1 |
| 20260506095406 | 6 | 119 | 0.0 | 0.0 | 0.00 | 0.00 | 0.00 | 94 | 1018.0 |
| 20260506094902 | 6 | 115 | 0.0 | 0.0 | 0.00 | 0.00 | 0.00 | 94 | 1017.8 |
| 20260506094401 | 6 | 120 | 0.0 | 0.0 | 0.00 | 0.00 | 0.00 | 94 | 1018.0 |
| 20260506093858 | 6 | 117 | 0.0 | 0.0 | 0.00 | 0.00 | 0.00 | 94 | 1018.3 |
| 20260506093355 | 6 | 122 | 0.0 | 0.0 | 0.00 | 0.00 | 0.00 | 94 | 1018.1 |
| 20260506092853 | 6 | 123 | 0.0 | 0.0 | 0.00 | 0.00 | 0.00 | 94 | 1017.7 |
| 20260506092351 | 6 | 123 | 0.0 | 0.0 | 0.00 | 0.00 | 0.00 | 94 | 1017.8 |
| 20260506091847 | 6 | 120 | 0.0 | 0.0 | 0.00 | 0.00 | 0.00 | 94 | 1017.9 |
| 20260506091346 | 6 | 115 | 0.0 | 0.0 | 0.00 | 0.00 | 0.00 | 94 | 1018.2 |
| 20260506090842 | 6 | 118 | 0.0 | 0.0 | 0.00 | 0.00 | 0.00 | 94 | 1017.9 |
| 20260506090340 | 6 | 117 | 0.0 | 0.0 | 0.00 | 0.00 | 0.00 | 94 | 1018.2 |
| 20260506085837 | 6 | 121 | 0.0 | 0.0 | 0.00 | 0.00 | 0.00 | 94 | 1018.3 |
| 20260506085332 | 6 | 102 | 0.0 | 0.0 | 0.00 | 0.00 | 0.00 | 94 | 1018.4 |
| 20260506084829 | 6 | 113 | 0.0 | 0.0 | 0.00 | 0.00 | 0.00 | 93 | 1018.7 |
| 20260506084326 | 6 | 106 | 0.0 | 0.0 | 0.00 | 0.00 | 0.00 | 93 | 1018.7 |
| 20260506083822 | 6 | 120 | 0.0 | 0.0 | 0.00 | 0.00 | 0.00 | 93 | 1018.6 |
| 20260506083320 | 6 | 83 | 0.0 | 0.0 | 0.00 | 0.00 | 0.00 | 93 | 1018.8 |
| 20260506082818 | 6 | 89 | 0.0 | 1.6 | 0.00 | 0.00 | 0.00 | 93 | 1018.7 |
| 20260506082314 | 6 | 123 | 0.0 | 0.0 | 0.00 | 0.00 | 0.00 | 93 | 1018.4 |
| 20260506081810 | 6 | 111 | 0.0 | 0.0 | 0.00 | 0.00 | 0.00 | 93 | 1018.8 |
| 20260506081308 | 6 | 123 | 0.0 | 0.0 | 0.00 | 0.00 | 0.00 | 93 | 1018.8 |
| 20260506080806 | 6 | 119 | 0.0 | 0.0 | 0.00 | 0.00 | 0.00 | 93 | 1018.2 |
| 20260506080302 | 6 | 123 | 0.0 | 0.0 | 0.00 | 0.00 | 0.00 | 93 | 1018.1 |
| 20260506073246 | 6 | 115 | 0.0 | 0.0 | 0.00 | 0.00 | 0.00 | 93 | 1017.7 |
| 20260506072743 | 6 | 103 | 1.6 | 1.6 | 0.00 | 0.00 | 0.00 | 93 | 1017.3 |
| 20260506072241 | 6 | 135 | 0.0 | 1.6 | 0.00 | 0.00 | 0.00 | 93 | 1016.7 |
| 20260506071738 | 6 | 116 | 0.0 | 1.6 | 0.00 | 0.00 | 0.00 | 93 | 1016.8 |
| 20260506071236 | 6 | 122 | 1.6 | 1.6 | 0.00 | 0.00 | 0.00 | 93 | 1016.8 |
| 20260506070733 | 6 | 110 | 1.6 | 1.6 | 0.00 | 0.00 | 0.00 | 92 | 1016.7 |
| 20260506070230 | 6 | 118 | 0.0 | 0.0 | 0.00 | 0.00 | 0.00 | 92 | 1016.4 |
| 20260506062207 | 7 | 116 | 0.0 | 0.0 | 0.00 | 0.00 | 0.00 | 90 | 1017.4 |
| 20260506061702 | 7 | 120 | 0.0 | 1.6 | 0.00 | 0.00 | 0.00 | 90 | 1017.5 |
| 20260506061200 | 7 | 86 | 4.8 | 4.8 | 0.00 | 0.00 | 0.00 | 90 | 1017.1 |
| 20260506060659 | 7 | 125 | 0.0 | 0.0 | 0.00 | 0.00 | 0.00 | 89 | 1016.8 |
| 20260506060155 | 7 | 89 | 1.6 | 3.2 | 0.00 | 0.00 | 0.00 | 89 | 1016.2 |
| 20260506051127 | 10 | 112 | 0.0 | 1.6 | 0.00 | 0.00 | 0.00 | 73 | 1015.7 |
| 20260506050625 | 10 | 119 | 1.6 | 3.2 | 0.00 | 0.00 | 0.00 | 72 | 1015.4 |
| 20260506050122 | 10 | 119 | 0.0 | 0.0 | 0.00 | 0.00 | 0.00 | 72 | 1016.2 |
| 20260506045115 | 10 | 115 | 0.0 | 0.0 | 0.00 | 0.00 | 0.00 | 75 | 1016.1 |
| 20260506044613 | 10 | 133 | 1.6 | 3.2 | 0.00 | 0.00 | 0.00 | 75 | 1016.0 |
| 20260506044110 | 10 | 123 | 0.0 | 0.0 | 0.00 | 0.00 | 0.00 | 78 | 1016.0 |
| 20260506043607 | 10 | 113 | 0.0 | 0.0 | 0.00 | 0.00 | 0.00 | 79 | 1016.1 |
| 20260506043105 | 10 | 117 | 0.0 | 0.0 | 0.00 | 0.00 | 0.00 | 80 | 1016.0 |
| 20260506042604 | 10 | 90 | 0.0 | 0.0 | 0.00 | 0.00 | 0.00 | 80 | 1015.8 |
| 20260506042102 | 10 | 113 | 0.0 | 0.0 | 0.00 | 0.00 | 0.00 | 81 | 1015.7 |
| 20260506041600 | 10 | 122 | 0.0 | 0.0 | 0.00 | 0.00 | 0.00 | 81 | 1015.9 |
| 20260506041056 | 10 | 115 | 0.0 | 0.0 | 0.00 | 0.00 | 0.00 | 81 | 1015.9 |
| 20260506040555 | 10 | 117 | 0.0 | 0.0 | 0.00 | 0.00 | 0.00 | 81 | 1016.1 |
| 20260506040050 | 10 | 114 | 0.0 | 0.0 | 0.00 | 0.00 | 0.00 | 81 | 1015.9 |
| 20260506035547 | 9 | 114 | 0.0 | 0.0 | 0.00 | 0.00 | 0.00 | 81 | 1015.9 |
| 20260506035044 | 9 | 123 | 0.0 | 0.0 | 0.00 | 0.00 | 0.00 | 82 | 1016.1 |
| 20260506034541 | 9 | 117 | 0.0 | 0.0 | 0.00 | 0.00 | 0.00 | 81 | 1015.9 |
| 20260506034038 | 9 | 122 | 0.0 | 0.0 | 0.00 | 0.00 | 0.00 | 81 | 1015.9 |
| 20260506033536 | 9 | 125 | 0.0 | 0.0 | 0.00 | 0.00 | 0.00 | 81 | 1016.0 |
| 20260506033032 | 9 | 121 | 0.0 | 0.0 | 0.00 | 0.00 | 0.00 | 81 | 1015.9 |
| 20260506032530 | 9 | 122 | 0.0 | 0.0 | 0.00 | 0.00 | 0.00 | 81 | 1016.1 |
| 20260506032026 | 9 | 123 | 0.0 | 0.0 | 0.00 | 0.00 | 0.00 | 81 | 1016.1 |
| 20260506031524 | 9 | 122 | 0.0 | 0.0 | 0.00 | 0.00 | 0.00 | 80 | 1016.1 |
| 20260506031021 | 9 | 94 | 0.0 | 0.0 | 0.00 | 0.00 | 0.00 | 81 | 1015.8 |
| 20260506030519 | 9 | 122 | 0.0 | 0.0 | 0.00 | 0.00 | 0.00 | 82 | 1015.3 |
| 20260506030016 | 9 | 123 | 0.0 | 0.0 | 0.00 | 0.00 | 0.00 | 81 | 1015.4 |
| 20260506025513 | 9 | 130 | 0.0 | 0.0 | 0.00 | 0.00 | 0.00 | 82 | 1015.4 |
| 20260506025009 | 9 | 124 | 0.0 | 0.0 | 0.00 | 0.00 | 0.00 | 83 | 1015.5 |
| 20260506024507 | 9 | 117 | 0.0 | 0.0 | 0.00 | 0.00 | 0.00 | 83 | 1015.6 |
| 20260506024002 | 9 | 112 | 0.0 | 1.6 | 0.00 | 0.00 | 0.00 | 83 | 1015.4 |
| 20260506023458 | 9 | 133 | 0.0 | 1.6 | 0.00 | 0.00 | 0.00 | 83 | 1015.4 |
| 20260506022955 | 9 | 16 | 1.6 | 3.2 | 0.00 | 0.00 | 0.00 | 83 | 1015.5 |
| 20260506022453 | 9 | 114 | 0.0 | 0.0 | 0.00 | 0.00 | 0.00 | 83 | 1015.7 |
| 20260506021951 | 9 | 108 | 0.0 | 1.6 | 0.00 | 0.00 | 0.00 | 82 | 1015.4 |
| 20260506021448 | 9 | 110 | 0.0 | 0.0 | 0.00 | 0.00 | 0.00 | 82 | 1015.6 |
| 20260506020945 | 10 | 80 | 1.6 | 3.2 | 0.00 | 0.00 | 0.00 | 80 | 1015.4 |
| 20260506020443 | 10 | 113 | 0.0 | 0.0 | 0.00 | 0.00 | 0.00 | 77 | 1015.5 |
| 20260506015940 | 10 | 124 | 0.0 | 0.0 | 0.00 | 0.00 | 0.00 | 73 | 1015.3 |
| 20260506015437 | 10 | 121 | 0.0 | 0.0 | 0.00 | 0.00 | 0.00 | 71 | 1015.2 |
| 20260506014934 | 10 | 87 | 1.6 | 3.2 | 0.00 | 0.00 | 0.00 | 70 | 1015.1 |
| 20260506014431 | 10 | 311 | 4.8 | 4.8 | 0.00 | 0.00 | 0.00 | 69 | 1015.0 |
| 20260506013927 | 10 | 107 | 0.0 | 0.0 | 0.00 | 0.00 | 0.00 | 69 | 1014.7 |
| 20260506013426 | 10 | 122 | 1.6 | 1.6 | 0.00 | 0.00 | 0.00 | 68 | 1014.7 |
| 20260506012921 | 10 | 103 | 0.0 | 0.0 | 0.00 | 0.00 | 0.00 | 68 | 1014.5 |
| 20260506012418 | 10 | 132 | 0.0 | 0.0 | 0.00 | 0.00 | 0.00 | 68 | 1014.7 |
| 20260506011915 | 10 | 122 | 0.0 | 0.0 | 0.00 | 0.00 | 0.00 | 68 | 1014.3 |
| 20260506011412 | 10 | 120 | 0.0 | 0.0 | 0.00 | 0.00 | 0.00 | 68 | 1014.7 |
| 20260506010909 | 11 | 120 | 0.0 | 0.0 | 0.00 | 0.00 | 0.00 | 68 | 1014.3 |
| 20260506010408 | 11 | 116 | 0.0 | 0.0 | 0.00 | 0.00 | 0.00 | 69 | 1014.2 |
| 20260506005904 | 11 | 107 | 0.0 | 0.0 | 0.00 | 0.00 | 0.00 | 68 | 1014.3 |
| 20260506005402 | 11 | 104 | 0.0 | 0.0 | 0.00 | 0.00 | 0.00 | 68 | 1014.3 |
| 20260506004856 | 11 | 113 | 0.0 | 1.6 | 0.00 | 0.00 | 0.00 | 68 | 1013.8 |
| 20260506004355 | 11 | 121 | 0.0 | 0.0 | 0.00 | 0.00 | 0.00 | 71 | 1014.0 |
| 20260506003851 | 11 | 124 | 0.0 | 0.0 | 0.00 | 0.00 | 0.00 | 73 | 1013.6 |
| 20260506003347 | 11 | 121 | 0.0 | 0.0 | 0.00 | 0.00 | 0.00 | 73 | 1014.0 |
| 20260506002843 | 11 | 118 | 0.0 | 0.0 | 0.00 | 0.00 | 0.00 | 73 | 1013.8 |
| 20260506002340 | 11 | 118 | 0.0 | 0.0 | 0.00 | 0.00 | 0.00 | 73 | 1013.7 |
| 20260506001836 | 11 | 118 | 0.0 | 0.0 | 0.00 | 0.00 | 0.00 | 73 | 1013.7 |
| 20260506001333 | 11 | 116 | 0.0 | 0.0 | 0.00 | 0.00 | 0.00 | 72 | 1013.8 |
| 20260506000830 | 11 | 110 | 1.6 | 3.2 | 0.00 | 0.00 | 0.00 | 71 | 1013.5 |
| 20260506000329 | 11 | 116 | 0.0 | 0.0 | 0.00 | 0.00 | 0.00 | 71 | 1013.4 |
| 20260505235824 | 11 | 62 | 1.6 | 1.6 | 0.00 | 0.00 | 0.00 | 71 | 1013.3 |
| 20260505235322 | 11 | 123 | 0.0 | 0.0 | 0.00 | 0.00 | 0.00 | 71 | 1013.4 |
| 20260505234818 | 11 | 137 | 0.0 | 1.6 | 0.00 | 0.00 | 0.00 | 70 | 1013.3 |
| 20260505234317 | 11 | 123 | 0.0 | 0.0 | 0.00 | 0.00 | 0.00 | 70 | 1013.3 |
| 20260505233813 | 11 | 124 | 0.0 | 0.0 | 0.00 | 0.00 | 0.00 | 70 | 1013.3 |
| 20260505233311 | 11 | 111 | 0.0 | 1.6 | 0.00 | 0.00 | 0.00 | 70 | 1013.2 |
| 20260505232808 | 11 | 125 | 0.0 | 1.6 | 0.00 | 0.00 | 0.00 | 70 | 1013.3 |
| 20260505232306 | 11 | 116 | 0.0 | 0.0 | 0.00 | 0.00 | 0.00 | 69 | 1013.5 |
| 20260505231802 | 11 | 91 | 0.0 | 0.0 | 0.00 | 0.00 | 0.00 | 69 | 1013.3 |
| 20260505231300 | 11 | 111 | 0.0 | 0.0 | 0.00 | 0.00 | 0.00 | 69 | 1013.2 |
| 20260505230758 | 11 | 113 | 0.0 | 0.0 | 0.00 | 0.00 | 0.00 | 69 | 1013.1 |
| 20260505230255 | 11 | 112 | 0.0 | 0.0 | 0.00 | 0.00 | 0.00 | 68 | 1012.8 |
| 20260505225752 | 11 | 111 | 0.0 | 0.0 | 0.00 | 0.00 | 0.00 | 68 | 1012.9 |
| 20260505225249 | 11 | 39 | 1.6 | 3.2 | 0.00 | 0.00 | 0.00 | 68 | 1012.8 |
| 20260505224743 | 11 | 107 | 1.6 | 1.6 | 0.00 | 0.00 | 0.00 | 68 | 1013.2 |
| 20260505224242 | 11 | 107 | 0.0 | 1.6 | 0.00 | 0.00 | 0.00 | 67 | 1013.1 |
| 20260505223739 | 12 | 90 | 1.6 | 3.2 | 0.00 | 0.00 | 0.00 | 66 | 1013.1 |
| 20260505223235 | 12 | 136 | 1.6 | 1.6 | 0.00 | 0.00 | 0.00 | 66 | 1013.4 |
| 20260505222731 | 12 | 107 | 0.0 | 0.0 | 0.00 | 0.00 | 0.00 | 67 | 1013.0 |
| 20260505222227 | 12 | 127 | 0.0 | 0.0 | 0.00 | 0.00 | 0.00 | 66 | 1013.1 |
| 20260505221725 | 12 | 161 | 0.0 | 1.6 | 0.00 | 0.00 | 0.00 | 66 | 1012.8 |
| 20260505221221 | 12 | 131 | 0.0 | 1.6 | 0.00 | 0.00 | 0.00 | 65 | 1013.0 |
| 20260505220718 | 12 | 122 | 0.0 | 1.6 | 0.00 | 0.00 | 0.00 | 65 | 1013.1 |
| 20260505220216 | 12 | 101 | 0.0 | 0.0 | 0.00 | 0.00 | 0.00 | 65 | 1013.0 |
| 20260505215714 | 12 | 119 | 0.0 | 1.6 | 0.00 | 0.00 | 0.00 | 64 | 1013.2 |
| 20260505215212 | 12 | 102 | 3.2 | 3.2 | 0.00 | 0.00 | 0.00 | 64 | 1013.6 |
| 20260505214709 | 12 | 123 | 0.0 | 0.0 | 0.00 | 0.00 | 0.00 | 65 | 1013.1 |
| 20260505214206 | 12 | 14 | 3.2 | 4.8 | 0.00 | 0.00 | 0.00 | 64 | 1013.2 |
| 20260505213704 | 12 | 120 | 0.0 | 0.0 | 0.00 | 0.00 | 0.00 | 66 | 1013.5 |
| 20260505213201 | 11 | 117 | 0.0 | 0.0 | 0.00 | 0.00 | 0.00 | 67 | 1013.5 |
| 20260505212656 | 12 | 110 | 1.6 | 1.6 | 0.00 | 0.00 | 0.00 | 66 | 1013.4 |
| 20260505212154 | 12 | 108 | 1.6 | 1.6 | 0.00 | 0.00 | 0.00 | 66 | 1013.5 |
| 20260505211651 | 12 | 112 | 1.6 | 1.6 | 0.00 | 0.00 | 0.00 | 66 | 1013.4 |
| 20260505211148 | 12 | 110 | 0.0 | 1.6 | 0.00 | 0.00 | 0.00 | 66 | 1013.8 |
| 20260505210644 | 12 | 144 | 0.0 | 1.6 | 0.00 | 0.00 | 0.00 | 66 | 1013.6 |
| 20260505210141 | 12 | 97 | 1.6 | 3.2 | 0.00 | 0.00 | 0.00 | 66 | 1013.6 |
| 20260505205639 | 12 | 113 | 0.0 | 0.0 | 0.00 | 0.00 | 0.00 | 66 | 1013.5 |
| 20260505205137 | 12 | 114 | 1.6 | 1.6 | 0.00 | 0.00 | 0.00 | 67 | 1013.7 |
| 20260505204633 | 12 | 112 | 1.6 | 1.6 | 0.00 | 0.00 | 0.00 | 67 | 1013.3 |
| 20260505204131 | 12 | 168 | 4.8 | 8.0 | 0.00 | 0.00 | 0.00 | 67 | 1013.5 |
| 20260505203628 | 12 | 130 | 0.0 | 0.0 | 0.00 | 0.00 | 0.00 | 69 | 1013.5 |
| 20260505203125 | 11 | 136 | 0.0 | 1.6 | 0.00 | 0.00 | 0.00 | 69 | 1013.5 |
| 20260505202620 | 12 | 151 | 1.6 | 3.2 | 0.00 | 0.00 | 0.00 | 70 | 1013.4 |
| 20260505202116 | 11 | 85 | 1.6 | 3.2 | 0.00 | 0.00 | 0.00 | 71 | 1013.7 |
| 20260505201613 | 12 | 93 | 3.2 | 4.8 | 0.00 | 0.00 | 0.00 | 70 | 1013.8 |
| 20260505201111 | 12 | 66 | 1.6 | 3.2 | 0.00 | 0.00 | 0.00 | 70 | 1013.9 |
| 20260505200609 | 11 | 113 | 0.0 | 1.6 | 0.00 | 0.00 | 0.00 | 70 | 1013.7 |
| 20260505200106 | 12 | 113 | 0.0 | 1.6 | 0.00 | 0.00 | 0.00 | 69 | 1013.8 |
| 20260505195602 | 12 | 322 | 3.2 | 8.0 | 0.00 | 0.00 | 0.00 | 69 | 1013.6 |
| 20260505195059 | 12 | 128 | 1.6 | 1.6 | 0.00 | 0.00 | 0.00 | 68 | 1013.5 |
| 20260505194556 | 12 | 97 | 1.6 | 1.6 | 0.00 | 0.00 | 0.00 | 69 | 1013.5 |
| 20260505194052 | 12 | 129 | 0.0 | 0.0 | 0.00 | 0.00 | 0.00 | 69 | 1013.2 |
| 20260505193549 | 12 | 125 | 3.2 | 3.2 | 0.00 | 0.00 | 0.00 | 69 | 1013.3 |
| 20260505193046 | 12 | 113 | 0.0 | 1.6 | 0.00 | 0.00 | 0.00 | 68 | 1013.5 |
| 20260505192545 | 12 | 126 | 0.0 | 0.0 | 0.00 | 0.00 | 0.00 | 68 | 1013.1 |
| 20260505192042 | 12 | 347 | 1.6 | 3.2 | 0.00 | 0.00 | 0.00 | 68 | 1013.5 |
| 20260505191540 | 12 | 105 | 0.0 | 1.6 | 0.00 | 0.00 | 0.00 | 68 | 1013.5 |
| 20260505191038 | 12 | 104 | 4.8 | 4.8 | 0.00 | 0.00 | 0.00 | 66 | 1013.5 |
| 20260505190532 | 12 | 108 | 1.6 | 3.2 | 0.00 | 0.00 | 0.00 | 67 | 1013.2 |
| 20260505190028 | 12 | 82 | 0.0 | 1.6 | 0.00 | 0.00 | 0.00 | 67 | 1013.2 |
| 20260505185525 | 11 | 110 | 1.6 | 1.6 | 0.00 | 0.00 | 0.00 | 67 | 1013.3 |
| 20260505185022 | 11 | 111 | 1.6 | 3.2 | 0.00 | 0.00 | 0.00 | 66 | 1013.2 |
| 20260505184519 | 12 | 111 | 1.6 | 3.2 | 0.00 | 0.00 | 0.00 | 66 | 1013.3 |
| 20260505184015 | 12 | 29 | 6.4 | 8.0 | 0.00 | 0.00 | 0.00 | 66 | 1013.3 |
| 20260505183512 | 12 | 358 | 1.6 | 3.2 | 0.00 | 0.00 | 0.00 | 66 | 1012.9 |
| 20260505183010 | 12 | 116 | 1.6 | 4.8 | 0.00 | 0.00 | 0.00 | 66 | 1012.9 |
| 20260505182506 | 12 | 76 | 1.6 | 3.2 | 0.00 | 0.00 | 0.00 | 64 | 1012.9 |
| 20260505182002 | 12 | 118 | 0.0 | 0.0 | 0.00 | 0.00 | 0.00 | 64 | 1013.1 |
| 20260505181459 | 12 | 111 | 1.6 | 3.2 | 0.00 | 0.00 | 0.00 | 63 | 1013.0 |
| 20260505180956 | 12 | 137 | 4.8 | 4.8 | 0.00 | 0.00 | 0.00 | 63 | 1012.8 |
| 20260505180452 | 12 | 114 | 3.2 | 3.2 | 0.00 | 0.00 | 0.00 | 64 | 1012.7 |
| 20260505175949 | 12 | 96 | 4.8 | 8.0 | 0.00 | 0.00 | 0.00 | 63 | 1012.9 |
| 20260505175445 | 12 | 106 | 1.6 | 3.2 | 0.00 | 0.00 | 0.00 | 66 | 1012.8 |
| 20260505174942 | 12 | 301 | 3.2 | 4.8 | 0.00 | 0.00 | 0.00 | 67 | 1013.2 |
| 20260505174434 | 12 | 111 | 1.6 | 1.6 | 0.00 | 0.00 | 0.00 | 66 | 1013.0 |
| 20260505173930 | 12 | 118 | 0.0 | 0.0 | 0.00 | 0.00 | 0.00 | 66 | 1013.0 |
| 20260505173426 | 11 | 100 | 1.6 | 3.2 | 0.00 | 0.00 | 0.00 | 67 | 1013.0 |
| 20260505172923 | 12 | 116 | 1.6 | 3.2 | 0.00 | 0.00 | 0.00 | 67 | 1012.9 |
| 20260505172422 | 12 | 87 | 6.4 | 12.9 | 0.00 | 0.00 | 0.00 | 64 | 1012.7 |
| 20260505171921 | 12 | 113 | 3.2 | 3.2 | 0.00 | 0.00 | 0.00 | 63 | 1012.9 |
| 20260505171418 | 12 | 97 | 8.0 | 12.9 | 0.00 | 0.00 | 0.00 | 65 | 1013.0 |
| 20260505170914 | 12 | 97 | 8.0 | 12.9 | 0.00 | 0.00 | 0.00 | 65 | 1013.0 |
| 20260505170411 | 12 | 97 | 8.0 | 12.9 | 0.00 | 0.00 | 0.00 | 65 | 1012.9 |
| 20260505165906 | 12 | 106 | 1.6 | 3.2 | 0.00 | 0.00 | 0.00 | 64 | 1012.8 |
| 20260505165356 | 12 | 8 | 9.7 | 17.7 | 0.00 | 0.00 | 0.00 | 63 | 1012.8 |
| 20260505164852 | 11 | 125 | 0.0 | 1.6 | 0.00 | 0.00 | 0.00 | 63 | 1012.8 |
| 20260505164349 | 11 | 120 | 1.6 | 1.6 | 0.00 | 0.00 | 0.00 | 64 | 1013.0 |
| 20260505163847 | 12 | 78 | 3.2 | 9.7 | 0.00 | 0.00 | 0.00 | 63 | 1012.7 |
| 20260505163346 | 12 | 106 | 3.2 | 8.0 | 0.00 | 0.00 | 0.00 | 61 | 1012.7 |
| 20260505162844 | 12 | 355 | 3.2 | 8.0 | 0.00 | 0.00 | 0.00 | 62 | 1012.6 |
| 20260505162340 | 12 | 112 | 1.6 | 1.6 | 0.00 | 0.00 | 0.00 | 61 | 1012.7 |
| 20260505161837 | 12 | 103 | 1.6 | 3.2 | 0.00 | 0.00 | 0.00 | 62 | 1012.6 |
| 20260505161334 | 12 | 86 | 1.6 | 3.2 | 0.00 | 0.00 | 0.00 | 61 | 1012.6 |
| 20260505160831 | 12 | 127 | 1.6 | 3.2 | 0.00 | 0.00 | 0.00 | 62 | 1012.6 |
| 20260505160329 | 11 | 48 | 4.8 | 4.8 | 0.00 | 0.00 | 0.00 | 62 | 1012.4 |
| 20260505153308 | 12 | 342 | 0.0 | 1.6 | 0.00 | 0.00 | 0.00 | 63 | 1011.7 |
| 20260505152805 | 12 | 168 | 3.2 | 4.8 | 0.00 | 0.00 | 0.00 | 62 | 1011.4 |
| 20260505152304 | 12 | 92 | 3.2 | 3.2 | 0.00 | 0.00 | 0.00 | 62 | 1011.3 |
| 20260505151756 | 12 | 2 | 3.2 | 4.8 | 0.00 | 0.00 | 0.00 | 63 | 1011.2 |
| 20260505151254 | 11 | 125 | 0.0 | 1.6 | 0.00 | 0.00 | 0.00 | 63 | 1011.4 |
| 20260505150750 | 11 | 115 | 1.6 | 1.6 | 0.00 | 0.00 | 0.00 | 63 | 1011.3 |
| 20260505150247 | 12 | 97 | 3.2 | 3.2 | 0.00 | 0.00 | 0.00 | 63 | 1011.5 |
| 20260505140217 | 12 | 107 | 1.6 | 1.6 | 0.00 | 0.00 | 0.00 | 63 | 1011.1 |
| 20260505130141 | 12 | 95 | 0.0 | 1.6 | 0.00 | 0.00 | 0.00 | 59 | 1010.3 |
| 20260505124631 | 12 | 292 | 6.4 | 11.3 | 0.00 | 0.00 | 0.00 | 60 | 1009.7 |
| 20260505124128 | 12 | 137 | 1.6 | 3.2 | 0.00 | 0.00 | 0.00 | 60 | 1009.5 |
| 20260505123623 | 12 | 101 | 1.6 | 1.6 | 0.00 | 0.00 | 0.00 | 59 | 1009.0 |
| 20260505123120 | 12 | 343 | 4.8 | 9.7 | 0.00 | 0.00 | 0.00 | 59 | 1009.1 |
| 20260505122617 | 12 | 108 | 0.0 | 0.0 | 0.00 | 0.00 | 0.00 | 61 | 1009.1 |
| 20260505122115 | 12 | 135 | 3.2 | 4.8 | 0.00 | 0.00 | 0.00 | 61 | 1009.1 |
| 20260505121611 | 12 | 181 | 3.2 | 4.8 | 0.00 | 0.00 | 0.00 | 61 | 1008.9 |
| 20260505121108 | 12 | 126 | 0.0 | 0.0 | 0.00 | 0.00 | 0.00 | 60 | 1008.8 |
| 20260505120604 | 12 | 125 | 1.6 | 3.2 | 0.00 | 0.00 | 0.00 | 59 | 1008.9 |
| 20260505120100 | 12 | 115 | 0.0 | 1.6 | 0.00 | 0.00 | 0.00 | 59 | 1008.6 |
| 20260505115554 | 12 | 95 | 3.2 | 3.2 | 0.00 | 0.00 | 0.00 | 58 | 1008.5 |
| 20260505115052 | 12 | 108 | 4.8 | 8.0 | 0.00 | 0.00 | 0.00 | 58 | 1008.6 |
| 20260505114549 | 12 | 122 | 0.0 | 1.6 | 0.00 | 0.00 | 0.00 | 58 | 1008.4 |
| 20260505114045 | 12 | 242 | 4.8 | 4.8 | 0.00 | 0.00 | 0.00 | 58 | 1008.5 |
| 20260505113541 | 12 | 107 | 0.0 | 1.6 | 0.00 | 0.00 | 0.00 | 57 | 1008.3 |
| 20260505113038 | 12 | 54 | 3.2 | 4.8 | 0.00 | 0.00 | 0.00 | 57 | 1008.3 |
| 20260505112534 | 12 | 88 | 3.2 | 3.2 | 0.00 | 0.00 | 0.00 | 57 | 1008.4 |
| 20260505112032 | 12 | 19 | 4.8 | 8.0 | 0.00 | 0.00 | 0.00 | 57 | 1008.2 |
| 20260505111526 | 12 | 93 | 1.6 | 3.2 | 0.00 | 0.00 | 0.00 | 57 | 1007.7 |
| 20260505111022 | 12 | 48 | 3.2 | 3.2 | 0.00 | 0.00 | 0.00 | 57 | 1008.2 |
| 20260505110514 | 12 | 115 | 0.0 | 1.6 | 0.00 | 0.00 | 0.00 | 57 | 1007.8 |